N8IR-11 Weather Reports


time (UTC)temp
C
wind
direction
speed
KPH
gust
KPH
rain 1hr
cm
rain 24hr
cm
rain mn
cm
humidity
%
barometer
mb
20260903051811 25 153 1.6 4.8 0.00 0.00 0.00 87 1013.4
20260903051311 25 156 0.0 1.6 0.00 0.00 0.00 87 1013.4
20260903050831 25 159 0.0 1.6 0.00 0.00 0.00 87 1013.4
20260903050311 25 158 0.0 1.6 0.00 0.00 0.00 86 1013.4
20260903045811 26 159 1.6 3.2 0.00 0.00 0.00 86 1013.4
20260903045310 26 0.0 0.0 0.00 0.00 0.00 86 1013.4
20260903044811 26 0.0 0.0 0.00 0.00 0.00 85 1013.4
20260903044311 26 0.0 0.0 0.00 0.00 0.00 85 1013.3
20260903043811 26 0.0 0.0 0.00 0.00 0.00 85 1013.3
20260903043311 26 0.0 0.0 0.00 0.00 0.00 85 1013.2
20260903042831 26 0.0 0.0 0.00 0.00 0.00 84 1013.1
20260903042311 26 0.0 0.0 0.00 0.00 0.00 84 1013.2
20260903041811 26 0.0 1.6 0.00 0.00 0.00 84 1013.2
20260903041331 26 0.0 0.0 0.00 0.00 0.00 84 1013.1
20260903040811 26 225 1.6 4.8 0.00 0.00 0.00 84 1013.0
20260903040310 26 153 0.0 3.2 0.00 0.00 0.00 84 1012.9
20260903035811 26 211 0.0 3.2 0.00 0.00 0.00 84 1012.9
20260903035311 26 0.0 0.0 0.00 0.00 0.00 83 1012.9
20260903034811 27 0.0 0.0 0.00 0.00 0.00 83 1012.8
20260903034311 27 0.0 0.0 0.00 0.00 0.00 83 1012.8
20260903033831 27 230 0.0 4.8 0.00 0.00 0.00 83 1012.6
20260903033331 27 204 3.2 8.0 0.00 0.00 0.00 83 1012.6
20260903032831 27 198 4.8 8.0 0.00 0.00 0.00 83 1012.6
20260903032311 27 186 3.2 8.0 0.00 0.00 0.00 83 1012.7
20260903031811 27 181 3.2 8.0 0.00 0.00 0.00 83 1012.5
20260903031311 27 156 3.2 9.7 0.00 0.00 0.00 82 1012.5
20260903030831 27 197 6.4 9.7 0.00 0.00 0.00 82 1012.4
20260903030310 27 191 6.4 9.7 0.00 0.00 0.00 82 1012.4
20260903025811 27 195 4.8 12.9 0.00 0.00 0.00 82 1012.4
20260903025311 27 194 4.8 8.0 0.00 0.00 0.00 82 1012.5
20260903024831 27 194 4.8 9.7 0.00 0.00 0.00 82 1012.7
20260903024311 27 205 1.6 9.7 0.00 0.00 0.00 82 1012.7
20260903023811 27 196 3.2 8.0 0.00 0.00 0.00 82 1012.8
20260903023311 27 196 3.2 8.0 0.00 0.00 0.00 81 1012.9
20260903022811 27 172 3.2 9.7 0.00 0.00 0.00 81 1013.0
20260903022310 27 199 4.8 9.7 0.00 0.00 0.00 81 1013.1
20260903021811 27 213 0.0 9.7 0.00 0.00 0.00 81 1013.1
20260903021311 28 205 8.0 12.9 0.00 0.00 0.00 80 1013.0
20260903020830 28 168 3.2 14.5 0.00 0.00 0.00 80 1013.0
20260903020311 28 185 6.4 11.3 0.00 0.00 0.00 80 1013.1
20260903015811 28 204 4.8 8.0 0.00 0.00 0.00 80 1013.0
20260903015311 28 188 4.8 9.7 0.00 0.00 0.00 79 1013.0
20260903014810 28 183 3.2 9.7 0.00 0.00 0.00 79 1012.9
20260903014311 28 192 3.2 9.7 0.00 0.00 0.00 79 1012.9
20260903013810 28 202 3.2 8.0 0.00 0.00 0.00 78 1012.9
20260903013310 28 193 3.2 6.4 0.00 0.00 0.00 78 1012.8
20260903012811 28 195 4.8 11.3 0.00 0.00 0.00 78 1012.8
20260903012310 28 193 4.8 8.0 0.00 0.00 0.00 77 1012.8
20260903011811 28 196 4.8 6.4 0.00 0.00 0.00 77 1012.7
20260903011310 29 188 1.6 9.7 0.00 0.00 0.00 76 1012.7
20260903010810 29 188 6.4 8.0 0.00 0.00 0.00 76 1012.6
20260903010311 29 168 3.2 6.4 0.00 0.00 0.00 76 1012.6
20260903005810 29 188 3.2 6.4 0.00 0.00 0.00 75 1012.5
20260903005310 29 191 6.4 9.7 0.00 0.00 0.00 75 1012.5
20260903004810 29 204 6.4 11.3 0.00 0.00 0.00 75 1012.5
20260903004330 30 189 3.2 8.0 0.00 0.00 0.00 74 1012.5
20260903003811 30 189 4.8 8.0 0.00 0.00 0.00 74 1012.5
20260903003330 30 197 4.8 8.0 0.00 0.00 0.00 73 1012.5
20260903002831 30 199 1.6 9.7 0.00 0.00 0.00 73 1012.5
20260903002310 30 184 4.8 6.4 0.00 0.00 0.00 73 1012.5
20260903001810 30 158 3.2 6.4 0.00 0.00 0.00 72 1012.5
20260903001330 30 176 3.2 6.4 0.00 0.00 0.00 72 1012.5
20260903000831 30 193 3.2 11.3 0.00 0.00 0.00 71 1012.6
20260903000310 30 187 3.2 6.4 0.00 0.00 0.00 71 1012.6
20260902235810 30 198 6.4 11.3 0.00 0.00 0.00 71 1012.7
20260902235311 31 201 6.4 16.1 0.00 0.00 0.00 70 1012.7
20260902234810 31 202 6.4 12.9 0.00 0.00 0.00 70 1012.7
20260902234310 31 182 4.8 9.7 0.00 0.00 0.00 70 1012.7
20260902233810 31 180 3.2 11.3 0.00 0.00 0.00 69 1012.7
20260902233310 31 169 3.2 14.5 0.00 0.00 0.00 69 1012.7
20260902232810 31 212 6.4 16.1 0.00 0.00 0.00 69 1012.7
20260902232310 31 226 3.2 6.4 0.00 0.00 0.00 68 1012.7
20260902231810 31 194 6.4 17.7 0.00 0.00 0.00 68 1012.7
20260902231330 31 201 4.8 9.7 0.00 0.00 0.00 67 1012.7
20260902230810 31 208 6.4 14.5 0.00 0.00 0.00 67 1012.6
20260902230310 32 181 3.2 12.9 0.00 0.00 0.00 66 1012.7
20260902225810 32 195 11.3 14.5 0.00 0.00 0.00 66 1012.6
20260902225310 32 197 9.7 12.9 0.00 0.00 0.00 65 1012.6
20260902224810 32 193 12.9 17.7 0.00 0.00 0.00 65 1012.7
20260902224310 32 179 6.4 14.5 0.00 0.00 0.00 65 1012.8
20260902223812 32 204 12.9 17.7 0.00 0.00 0.00 64 1012.7
20260902223312 32 184 9.7 16.1 0.00 0.00 0.00 64 1012.7
20260902222813 32 217 3.2 11.3 0.00 0.00 0.00 64 1012.8
20260902222312 32 192 4.8 14.5 0.00 0.00 0.00 64 1012.8
20260902221812 32 208 1.6 6.4 0.00 0.00 0.00 64 1012.8
20260902221313 32 196 4.8 9.7 0.00 0.00 0.00 64 1012.8
20260902220812 32 239 8.0 12.9 0.00 0.00 0.00 63 1012.9
20260902220312 32 194 8.0 11.3 0.00 0.00 0.00 63 1012.9
20260902215832 32 197 6.4 11.3 0.00 0.00 0.00 62 1013.0
20260902215312 32 195 12.9 20.9 0.00 0.00 0.00 61 1013.0
20260902214812 32 207 9.7 22.5 0.00 0.00 0.00 60 1013.0
20260902214312 32 207 11.3 17.7 0.00 0.00 0.00 60 1013.0
20260902213832 32 192 9.7 17.7 0.00 0.00 0.00 59 1013.1
20260902213312 33 224 9.7 16.1 0.00 0.00 0.00 58 1013.1
20260902212812 33 225 9.7 20.9 0.00 0.00 0.00 58 1013.2
20260902212312 33 213 11.3 22.5 0.00 0.00 0.00 59 1013.1
20260902211812 33 190 11.3 19.3 0.00 0.00 0.00 58 1013.2
20260902211312 33 236 11.3 20.9 0.00 0.00 0.00 57 1013.2
20260902210812 33 223 9.7 20.9 0.00 0.00 0.00 57 1013.2
20260902210332 33 193 6.4 11.3 0.00 0.00 0.00 58 1013.2
20260902205812 33 208 11.3 17.7 0.00 0.00 0.00 57 1013.3
20260902205312 33 221 9.7 19.3 0.00 0.00 0.00 58 1013.3
20260902204812 33 197 9.7 17.7 0.00 0.00 0.00 59 1013.4
20260902204332 33 192 12.9 20.9 0.00 0.00 0.00 59 1013.5
20260902203812 33 212 11.3 20.9 0.00 0.00 0.00 59 1013.6
20260902203312 33 190 8.0 19.3 0.00 0.00 0.00 58 1013.6
20260902202832 33 213 8.0 17.7 0.00 0.00 0.00 60 1013.6
20260902202332 33 199 12.9 24.1 0.00 0.00 0.00 59 1013.6
20260902201852 33 207 9.7 20.9 0.00 0.00 0.00 58 1013.7
20260902201312 33 216 11.3 25.7 0.00 0.00 0.00 58 1013.8
20260902200812 34 218 9.7 17.7 0.00 0.00 0.00 57 1013.8
20260902200312 34 213 9.7 20.9 0.00 0.00 0.00 58 1013.8
20260902195812 34 206 11.3 17.7 0.00 0.00 0.00 57 1013.9
20260902195312 34 203 8.0 17.7 0.00 0.00 0.00 56 1014.0
20260902194832 34 232 4.8 14.5 0.00 0.00 0.00 57 1014.0
20260902194312 34 207 6.4 19.3 0.00 0.00 0.00 57 1014.1
20260902193812 35 218 6.4 11.3 0.00 0.00 0.00 56 1014.2
20260902193312 35 208 8.0 16.1 0.00 0.00 0.00 55 1014.2
20260902192811 35 209 11.3 22.5 0.00 0.00 0.00 53 1014.2
20260902192312 35 189 8.0 19.3 0.00 0.00 0.00 54 1014.3
20260902191811 35 214 8.0 12.9 0.00 0.00 0.00 55 1014.3
20260902191312 35 223 8.0 14.5 0.00 0.00 0.00 54 1014.4
20260902190811 34 195 9.7 19.3 0.00 0.00 0.00 54 1014.4
20260902190311 34 212 4.8 12.9 0.00 0.00 0.00 57 1014.6
20260902185831 34 232 6.4 12.9 0.00 0.00 0.00 55 1014.6
20260902185311 34 237 12.9 20.9 0.00 0.00 0.00 56 1014.6
20260902184811 34 224 9.7 19.3 0.00 0.00 0.00 54 1014.6
20260902184312 34 235 11.3 20.9 0.00 0.00 0.00 56 1014.7
20260902183812 34 245 9.7 14.5 0.00 0.00 0.00 56 1014.6
20260902183311 34 214 11.3 19.3 0.00 0.00 0.00 58 1014.7
20260902182811 34 231 4.8 14.5 0.00 0.00 0.00 60 1014.8
20260902182311 33 196 6.4 19.3 0.00 0.00 0.00 61 1014.8
20260902181812 33 237 9.7 20.9 0.00 0.00 0.00 61 1014.9
20260902181311 33 207 6.4 19.3 0.00 0.00 0.00 61 1014.9
20260902180811 33 189 4.8 12.9 0.00 0.00 0.00 63 1014.9
20260902180311 33 229 6.4 14.5 0.00 0.00 0.00 62 1015.0
20260902175811 33 212 9.7 16.1 0.00 0.00 0.00 64 1015.0
20260902175311 33 222 8.0 16.1 0.00 0.00 0.00 61 1015.0
20260902174811 33 213 11.3 17.7 0.00 0.00 0.00 62 1015.1
20260902174311 33 234 6.4 11.3 0.00 0.00 0.00 63 1015.1
20260902173811 33 205 4.8 11.3 0.00 0.00 0.00 63 1015.2
20260902173312 32 201 9.7 20.9 0.00 0.00 0.00 65 1015.3
20260902172811 32 218 4.8 16.1 0.00 0.00 0.00 65 1015.3
20260902172311 32 250 1.6 3.2 0.00 0.00 0.00 65 1015.4
20260902171831 32 228 6.4 9.7 0.00 0.00 0.00 65 1015.4
20260902171311 32 196 9.7 12.9 0.00 0.00 0.00 64 1015.4
20260902170811 32 220 8.0 16.1 0.00 0.00 0.00 63 1015.4
20260902170331 33 195 6.4 9.7 0.00 0.00 0.00 66 1015.4
20260902165811 32 243 1.6 4.8 0.00 0.00 0.00 67 1015.5
20260902165311 32 208 1.6 6.4 0.00 0.00 0.00 64 1015.5
20260902164811 32 205 6.4 14.5 0.00 0.00 0.00 65 1015.7
20260902164311 32 230 6.4 17.7 0.00 0.00 0.00 65 1015.7
20260902163811 32 209 3.2 9.7 0.00 0.00 0.00 64 1015.6
20260902163311 32 198 6.4 16.1 0.00 0.00 0.00 65 1015.8
20260902162831 32 191 8.0 16.1 0.00 0.00 0.00 65 1015.7
20260902162311 32 200 9.7 16.1 0.00 0.00 0.00 65 1015.6
20260902161811 32 264 8.0 12.9 0.00 0.00 0.00 66 1015.7
20260902161311 32 211 6.4 9.7 0.00 0.00 0.00 69 1015.9
20260902160811 32 229 11.3 16.1 0.00 0.00 0.00 67 1015.9
20260902160311 31 225 6.4 12.9 0.00 0.00 0.00 69 1015.9
20260902155831 31 210 4.8 12.9 0.00 0.00 0.00 69 1015.9
20260902155311 31 187 3.2 11.3 0.00 0.00 0.00 69 1015.8
20260902154811 31 186 4.8 9.7 0.00 0.00 0.00 70 1015.9
20260902154311 31 201 9.7 17.7 0.00 0.00 0.00 70 1015.8
20260902153811 31 194 8.0 12.9 0.00 0.00 0.00 72 1015.8
20260902153311 31 197 6.4 12.9 0.00 0.00 0.00 71 1015.8
20260902152831 31 205 6.4 12.9 0.00 0.00 0.00 72 1015.8
20260902152311 31 251 4.8 12.9 0.00 0.00 0.00 72 1015.8
20260902151811 30 222 6.4 16.1 0.00 0.00 0.00 73 1015.7
20260902151311 30 205 6.4 12.9 0.00 0.00 0.00 74 1015.6
20260902150811 30 206 3.2 6.4 0.00 0.00 0.00 73 1015.6
20260902150311 30 211 6.4 9.7 0.00 0.00 0.00 73 1015.6
20260902145811 30 195 1.6 9.7 0.00 0.00 0.00 72 1015.6
20260902145311 30 232 6.4 12.9 0.00 0.00 0.00 73 1015.5
20260902144811 30 250 1.6 4.8 0.00 0.00 0.00 74 1015.5
20260902144311 30 208 9.7 14.5 0.00 0.00 0.00 74 1015.4
20260902143811 30 203 6.4 9.7 0.00 0.00 0.00 75 1015.5
20260902143311 29 215 11.3 20.9 0.00 0.00 0.00 76 1015.4
20260902142811 29 211 8.0 9.7 0.00 0.00 0.00 77 1015.3
20260902142331 28 227 6.4 9.7 0.00 0.00 0.00 79 1015.2
20260902141811 28 231 8.0 12.9 0.00 0.00 0.00 81 1015.3
20260902141311 28 205 6.4 8.0 0.00 0.00 0.00 81 1015.3
20260902140811 27 206 6.4 9.7 0.00 0.00 0.00 83 1015.2
20260902140311 27 220 4.8 11.3 0.00 0.00 0.00 83 1015.2
20260902135811 27 202 4.8 6.4 0.00 0.00 0.00 85 1015.2
20260902135311 27 193 6.4 11.3 0.00 0.00 0.00 85 1015.2
20260902134811 26 208 8.0 11.3 0.00 0.00 0.00 85 1015.2
20260902134311 26 202 3.2 8.0 0.00 0.00 0.00 87 1015.2
20260902133811 26 204 1.6 6.4 0.00 0.00 0.00 88 1015.1
20260902133311 26 195 1.6 6.4 0.00 0.00 0.00 89 1015.2
20260902132811 25 222 4.8 8.0 0.00 0.00 0.00 89 1015.0
20260902132311 25 198 4.8 9.7 0.00 0.00 0.00 90 1015.1
20260902131811 25 209 4.8 8.0 0.00 0.00 0.00 90 1015.1
20260902131311 25 207 4.8 8.0 0.00 0.00 0.00 91 1015.1
20260902130811 25 212 8.0 11.3 0.00 0.00 0.00 91 1015.2
20260902130311 25 213 8.0 9.7 0.00 0.00 0.00 92 1015.2
20260902125811 24 213 6.4 11.3 0.00 0.00 0.00 92 1015.1
20260902125310 24 214 4.8 8.0 0.00 0.00 0.00 92 1015.1
20260902124811 24 197 4.8 8.0 0.00 0.00 0.00 92 1015.1
20260902124331 23 210 4.8 8.0 0.00 0.00 0.00 92 1015.1
20260902123811 23 215 3.2 8.0 0.00 0.00 0.00 92 1015.1
20260902123331 23 203 1.6 4.8 0.00 0.00 0.00 92 1015.1
20260902122811 23 208 3.2 4.8 0.00 0.00 0.00 92 1015.1
20260902122311 23 208 1.6 6.4 0.00 0.00 0.00 92 1015.0
20260902121810 23 208 1.6 6.4 0.00 0.00 0.00 92 1015.1
20260902121311 23 217 1.6 4.8 0.00 0.00 0.00 92 1015.1
20260902120811 23 207 1.6 6.4 0.00 0.00 0.00 92 1015.1
20260902120331 23 207 3.2 4.8 0.00 0.00 0.00 92 1015.2
20260902115811 23 221 3.2 4.8 0.00 0.00 0.00 92 1015.2
20260902115311 23 205 4.8 8.0 0.00 0.00 0.00 92 1015.2
20260902114811 22 211 3.2 8.0 0.00 0.00 0.00 92 1015.2
20260902114311 22 236 3.2 6.4 0.00 0.00 0.00 92 1015.1
20260902113830 22 213 3.2 6.4 0.00 0.00 0.00 92 1015.1
20260902113331 22 223 0.0 4.8 0.00 0.00 0.00 92 1015.1
20260902112810 22 221 1.6 3.2 0.00 0.00 0.00 92 1015.1
20260902112311 22 214 1.6 3.2 0.00 0.00 0.00 92 1014.9
20260902111811 22 199 0.0 1.6 0.00 0.00 0.00 92 1015.0
20260902111311 22 0.0 0.0 0.00 0.00 0.00 92 1015.0
20260902110811 22 0.0 0.0 0.00 0.00 0.00 92 1015.0
20260902110310 22 205 0.0 4.8 0.00 0.00 0.00 92 1015.0
20260902105811 22 194 0.0 3.2 0.00 0.00 0.00 92 1015.1
20260902105311 22 192 1.6 6.4 0.00 0.00 0.00 92 1015.0
20260902104811 23 192 1.6 4.8 0.00 0.00 0.00 92 1015.1
20260902104311 23 0.0 3.2 0.00 0.00 0.00 92 1015.0
20260902103810 23 194 1.6 4.8 0.00 0.00 0.00 92 1015.0
20260902103330 23 187 1.6 3.2 0.00 0.00 0.00 92 1014.9
20260902102811 23 185 1.6 3.2 0.00 0.00 0.00 92 1014.9
20260902102310 23 188 1.6 3.2 0.00 0.00 0.00 92 1014.9
20260902101831 23 180 3.2 4.8 0.00 0.00 0.00 92 1014.9
20260902101311 23 193 3.2 4.8 0.00 0.00 0.00 92 1014.9
20260902100810 23 178 0.0 1.6 0.00 0.00 0.00 92 1015.0
20260902100310 23 188 1.6 3.2 0.00 0.00 0.00 92 1014.9
20260902095810 23 188 1.6 4.8 0.00 0.00 0.00 92 1014.9
20260902095310 23 167 1.6 4.8 0.00 0.00 0.00 91 1015.0
20260902094810 23 159 0.0 3.2 0.00 0.00 0.00 92 1014.9
20260902094330 23 161 0.0 1.6 0.00 0.00 0.00 91 1014.9
20260902093810 23 177 1.6 4.8 0.00 0.00 0.00 91 1014.9
20260902093310 23 0.0 0.0 0.00 0.00 0.00 92 1014.8
20260902092810 23 159 1.6 6.4 0.00 0.00 0.00 92 1014.7
20260902092310 23 175 1.6 4.8 0.00 0.00 0.00 92 1014.7
20260902091830 23 180 0.0 1.6 0.00 0.00 0.00 92 1014.7
20260902091311 23 180 0.0 3.2 0.00 0.00 0.00 92 1014.8
20260902090810 23 167 1.6 1.6 0.00 0.00 0.00 92 1014.8
20260902090310 23 0.0 0.0 0.00 0.00 0.00 92 1014.7
20260902085810 23 166 0.0 1.6 0.00 0.00 0.00 92 1014.6
20260902085310 23 175 1.6 3.2 0.00 0.00 0.00 92 1014.7
20260902084810 23 175 1.6 3.2 0.00 0.00 0.00 92 1014.7
20260902084310 23 175 0.0 1.6 0.00 0.00 0.00 92 1014.7
20260902083831 23 175 0.0 1.6 0.00 0.00 0.00 92 1014.7
20260902083310 23 175 1.6 3.2 0.00 0.00 0.00 92 1014.7
20260902082811 23 0.0 0.0 0.00 0.00 0.00 91 1014.7
20260902082310 23 169 0.0 1.6 0.00 0.00 0.00 92 1014.7
20260902081810 23 171 0.0 1.6 0.00 0.00 0.00 91 1014.6
20260902081310 23 0.0 0.0 0.00 0.00 0.00 91 1014.6
20260902080810 23 171 1.6 3.2 0.00 0.00 0.00 91 1014.5
20260902080310 23 0.0 0.0 0.00 0.00 0.00 91 1014.5
20260902075810 23 0.0 0.0 0.00 0.00 0.00 91 1014.6
20260902075310 23 0.0 0.0 0.00 0.00 0.00 91 1014.4
20260902074810 23 0.0 0.0 0.00 0.00 0.00 91 1014.4
20260902074310 23 0.0 1.6 0.00 0.00 0.00 91 1014.3
20260902073810 23 0.0 1.6 0.00 0.00 0.00 91 1014.4
20260902073312 23 0.0 0.0 0.00 0.00 0.00 91 1014.4
20260902072812 23 0.0 0.0 0.00 0.00 0.00 91 1014.4
20260902072312 23 0.0 1.6 0.00 0.00 0.00 91 1014.4
20260902071812 23 171 0.0 1.6 0.00 0.00 0.00 91 1014.3
20260902071312 23 0.0 1.6 0.00 0.00 0.00 91 1014.2
20260902070812 23 159 0.0 1.6 0.00 0.00 0.00 91 1014.2
20260902070332 23 0.0 0.0 0.00 0.00 0.00 91 1014.2
20260902065812 23 0.0 0.0 0.00 0.00 0.00 91 1014.2
20260902065312 23 0.0 0.0 0.00 0.00 0.00 91 1014.2
20260902064812 23 0.0 0.0 0.00 0.00 0.00 91 1014.2
20260902064312 23 0.0 0.0 0.00 0.00 0.00 91 1014.2
20260902063812 23 0.0 0.0 0.00 0.00 0.00 91 1014.2
20260902063312 23 0.0 0.0 0.00 0.00 0.00 91 1014.2
20260902062812 23 0.0 0.0 0.00 0.00 0.00 91 1014.2
20260902062312 23 0.0 0.0 0.00 0.00 0.00 91 1014.3
20260902061812 23 0.0 0.0 0.00 0.00 0.00 91 1014.3
20260902061312 23 124 0.0 3.2 0.00 0.00 0.00 91 1014.4
20260902060812 23 0.0 0.0 0.00 0.00 0.00 91 1014.4
20260902060332 23 0.0 0.0 0.00 0.00 0.00 91 1014.6
20260902055812 23 0.0 0.0 0.00 0.00 0.00 91 1014.7
20260902055312 23 0.0 0.0 0.00 0.00 0.00 91 1014.7
20260902054812 23 0.0 0.0 0.00 0.00 0.00 91 1014.7
20260902054312 23 0.0 0.0 0.00 0.00 0.00 91 1014.7
20260902053812 23 0.0 0.0 0.00 0.00 0.00 91 1014.7
20260902053312 23 0.0 0.0 0.00 0.00 0.00 91 1014.6
20260902052832 23 0.0 0.0 0.00 0.00 0.00 91 1014.7
20260902052312 23 0.0 0.0 0.00 0.00 0.00 91 1014.7